SCP
0 0 0 0 0 0 0 0 0 0 0 0 0 0 0 0 0 0 0 0 0 0 0 0 0 0 0 0 0 0 0 0 0 0 0 0 0 0 -0 0 -0 0 0 0 0 0 0 -0 -0 0 0 0 0 0
0 0 0 0 0 0 0 0 0 0 0 0 0 0 0 0 0 0 0 0 0 0 0 0 0 0 0 -0 0 0 -0 0 0 0 0 0 0 0 0 0 0 0 0 0 0 0 0 -0 0 -0 -0 0 0 -0
0 0 0 0 0 0 0 0 0 0 0 0 0 0 0 0 0 0 0 0 0 0 0 0 0 0 0 -0 -0 0 0 0 0 0 0 0 0 0 0 0 0 0 0 0 0 0 0 -0 -0 -0 -0 0 -0 -0
0 0 0 0 0 0 0 0 0 0 0 0 0 0 0 0 0 0 0 0 0 0 0 0 0 0 0 -0 -0 -0 -0 0 0 0 0 0 0 0 0 0 0 0 0 0 0 0 0 -0 -0 -0 -0 -0 -0 -0
0 0 0 0 0 0 0 0 0 0 0 0 0 0 0 0 0 0 0 0 0 0 0 0 0 0 0 0 -0 -0 -0 -0 -0 0 0 0 0 0 0 0 0 0 0 0 0 -0 0 -0 -0 -0 -0 -0 0 -0
0 0 0 0 0 0 0 0 0 0 0 0 0 0 0 0 0 0 0 0 0 0 0 0 0 -0 0 0 0 0 -0 0 0 0 0 0 0 0 -0 -0 0 -0 0 0 -0 -0 -0 -0 -0 -0 -0 -0 -0 -0
0 0 0 0 0 0 0 0 0 0 0 0 0 0 0 0 0 0 0 0 0 0 0 0 0 0 0 -0 0 -0 -0 0 0 0 0 0 0 0 -0 -0 0 0 0 0 0 0 -0 -0 -0 -0 -0 0 -0 -0
0 0 0 0 0 0 0 0 0 0 0 0 0 0 0 0 0 0 0 0 0 0 0 0 0 0 0 -0 -0 -0 -0 -0 0 0 0 0 -0 0 -0 0 0 0 0 -0 -0 0 -0 -0 -0 -0 0 0 0 -0
0 0 0 0 0 0 0 0 0 0 0 0 0 0 0 0 0 0 0 0 0 0 0 0 0 0 0 -0 -0 0 -0 0 0 0 0 0 0 0 -0 -0 0 -0 0 -0 -0 0 0 0 -0 0 0 0 0 0
0 0 0 0 0 0 0 0 0 0 0 0 0 0 0 0 0 0 0 0 0 0 0 0 0 0 0 -0 -0 0 -0 0 0 0 0 0 0 0 -0 -0 -0 0 -0 0 0 -0 0 0 0 0 -0 0 0 0
0 0 0 0 0 0 0 0 0 0 0 0 0 0 0 0 0 0 0 0 0 0 0 0 0 0 0 0 0 0 0 -0 0 0 0 0 0 0 0 0 0 -0 -0 -0 0 0 0 -0 -0 -0 0 0 0 0
0 0 0 0 0 0 0 0 0 0 0 0 0 0 0 0 0 0 0 0 0 0 0 0 0 0 0 0 -0 0 0 0 0 0 0 0 0 0 0 0 0 -0 -0 -0 -0 -0 -0 -0 0 -0 -0 -0 -0 0
0 0 0 0 0 0 0 0 0 0 0 0 0 0 0 0 0 0 0 0 0 0 0 0 0 0 0 0 -0 0 0 0 0 0 0 0 0 0 0 0 0 0 -0 -0 -0 -0 -0 -0 0 0 0 0 0 -0
0 0 0 0 0 0 0 0 0 0 0 0 0 0 0 0 0 0 0 0 0 0 0 0 0 0 0 0 -0 0 -0 -0 0 0 0 0 0 0 0 0 0 0 0 0 0 0 0 0 -0 -0 -0 -0 -0 -0
0 0 0 0 0 0 0 0 0 0 0 0 0 0 0 0 0 0 0 0 0 0 0 0 0 0 0 0 0 0 0 0 0 0 0 0 0 -0 -0 -0 0 0 0 0 0 0 0 -0 -0 -0 -0 -0 -0 0
0 0 0 0 0 0 0 0 0 0 0 0 0 0 0 0 0 0 0 0 0 0 0 0 0 0 0 0 0 0 0 0 0 0 0 0 -0 0 -0 0 0 0 0 0 0 0 0 -0 -0 -0 -0 0 0 0
0 0 0 0 0 0 0 0 0 0 0 0 0 0 0 0 0 0 0 0 0 0 0 0 0 0 0 -0 -0 -0 -0 0 0 0 0 0 -0 0 0 0 0 0 0 0 0 0 -0 -0 0 0 0 0 0 0
0 0 0 0 0 0 0 0 0 0 0 0 0 0 0 0 0 0 0 0 0 0 0 0 0 0 0 -0 -0 0 0 0 0 0 0 0 0 0 0 0 0 0 0 0 0 0 0 0 0 0 0 0 0 0
0 0 0 0 0 0 0 0 0 0 0 0 0 0 0 0 0 0 0 0 0 0 0 0 0 0 0 -0 -0 -0 -0 0 0 0 0 0 0 0 0 0 0 0 0 0 0 0 0 -0 -0 -0 0 0 0 0
0 0 0 0 0 0 0 0 0 0 0 0 0 0 0 0 0 0 0 0 0 0 0 0 0 0 0 0 0 0 -0 0 0 0 0 0 0 0 0 0 0 0 0 0 0 0 0 0 0 0 0 0 0 0
0 0 0 0 0 0 0 0 0 0 0 0 0 0 0 0 0 0 0 0 0 0 0 0 0 0 0 0 0 0 0 -0 -0 -0 -0 0 0 0 0 0 0 0 0 0 0 0 0 0 0 0 0 0 0 0
0 0 0 0 0 0 0 0 0 0 0 0 0 0 0 0 0 0 0 0 0 0 0 0 0 0 0 0 -0 -0 0 -0 0 -0 -0 -0 -0 0 0 0 0 0 0 0 0 0 0 0 0 0 0 0 0 0
0 0 0 0 0 0 0 0 0 0 0 0 0 0 0 0 -0 0 0 0 0 0 0 0 0 0 0 0 0 0 0 -0 0 0 0 0 0 0 0 0 0 0 0 0 0 0 0 0 0 0 0 -0 -0 0
0 0 0 0 0 0 0 0 0 -0 -0 -0 -0 -0 0 0 0 0 0 0 0 0 0 0 0 0 0 0 0 0 0 -0 -0 -0 -0 0 0 0 0 0 0 0 0 0 0 0 0 0 0 0 0 -0 -0 -0
0 0 0 0 0 0 0 0 0 0 0 0 0 0 -0 0 0 0 0 0 0 0 0 0 0 0 0 0 0 0 -0 -0 -0 -0 -0 -0 -0 -0 -0 0 0 0 0 0 0 0 0 0 0 0 0 0 0 0
0 0 0 0 0 0 0 0 0 0 0 0 0 -0 -0 0 0 0 0 0 0 0 0 0 0 0 0 0 0 0 0 0 -0 0 -0 -0 -0 -0 -0 -0 0 0 0 0 0 0 0 0 0 0 0 0 0 0
0 0 0 0 0 0 0 0 0 0 0 0 -0 -0 0 0 0 0 0 0 0 0 0 0 0 0 0 0 0 0 0 0 0 0 0 0 -0 -0 -0 -0 -0 0 0 0 0 0 0 0 0 0 0 0 0 0
0 0 0 0 0 0 0 0 0 0 0 0 0 0 0 0 0 0 0 0 0 0 0 0 0 0 0 0 0 0 0 0 0 0 0 0 0 -0 -0 0 0 -0 -0 -0 0 0 0 0 0 0 0 0 0 0
0 0 0 0 0 0 0 0 0 0 0 0 0 0 0 0 0 0 0 0 0 0 0 0 0 0 0 0 0 0 0 0 0 0 0 0 0 0 -0 0 -0 -0 -0 0 0 0 0 0 0 0 0 0 0 0
0 0 0 0 0 0 0 0 0 0 0 0 0 0 0 0 0 0 0 0 0 -0 0 0 0 0 0 0 0 0 0 0 0 0 0 0 0 0 0 0 0 0 0 0 0 0 0 0 0 0 0 0 0 0
0 0 0 0 0 0 0 0 0 0 0 0 0 0 0 0 0 0 0 0 0 0 0 0 0 0 0 0 0 0 0 0 0 0 0 0 0 0 0 0 0 0 0 0 0 0 0 0 0 0 0 0 0 0
0 0 0 0 0 0 0 0 0 0 0 0 0 0 0 0 0 0 0 0 0 0 0 0 0 0 0 0 0 0 0 0 0 0 0 0 0 0 0 0 0 0 0 0 0 0 0 0 0 0 0 0 0 0
0 0 0 0 0 0 0 0 0 0 0 0 0 0 0 0 0 0 0 0 0 0 0 0 0 0 0 0 0 0 0 0 0 0 0 0 0 0 0 0 0 0 0 0 0 0 0 0 0 0 0 0 0 0
Wind_Speed_500mb
41 40 40 41 42 42 41 38 37 37 35 32 31 28 24 23 22 21 27 14 16 20 51 48 32 20 26 24 6 23 23 5 6 8 5 5 5 6 7 7 14 6 9 4 5 5 8 41 36 12 16 44 34 3
43 42 43 43 42 41 39 38 37 35 31 31 29 25 24 24 21 20 31 27 26 31 53 73 67 57 58 43 42 12 14 18 10 4 1 6 4 5 7 6 8 3 9 6 4 3 19 43 33 41 46 42 16 48
47 47 46 45 41 41 38 36 35 33 31 30 29 25 25 27 22 19 33 31 31 27 51 15 9 12 37 31 26 20 13 10 11 11 5 4 7 4 5 6 8 10 13 6 8 7 19 47 50 53 19 36 44 56
50 50 48 45 42 41 38 36 33 30 29 28 26 24 27 27 27 24 31 19 19 17 12 20 37 32 17 13 25 43 54 39 27 6 8 4 5 2 5 7 6 7 18 14 8 15 15 46 56 50 41 49 55 56
52 50 49 48 43 41 38 35 32 29 28 28 25 24 28 29 29 28 12 7 14 14 10 34 51 6 14 26 33 36 41 46 28 6 5 3 5 5 6 3 6 14 9 7 9 35 12 33 52 59 58 55 60 70
54 53 49 48 46 43 38 36 32 29 28 27 25 26 28 27 26 25 3 7 5 5 12 9 22 13 18 23 25 22 16 28 16 7 5 6 8 5 4 5 17 27 36 40 18 44 35 47 65 68 71 65 70 74
54 53 50 47 47 44 39 36 29 26 25 26 24 26 26 20 20 14 6 6 14 21 9 13 15 15 25 27 13 8 10 11 7 4 5 6 2 7 1 3 11 12 9 21 26 22 44 59 48 67 73 75 77 75
50 49 48 47 48 42 38 34 26 25 24 23 24 24 20 17 24 11 3 0 17 25 11 6 8 17 14 12 11 7 7 4 6 4 6 4 5 1 2 9 13 18 10 19 18 27 29 40 49 55 65 67 68 62
49 47 45 45 44 36 36 32 23 22 20 21 21 16 20 9 7 1 11 17 12 13 7 8 5 7 16 10 10 8 6 2 5 3 5 3 2 3 10 8 6 9 10 25 28 31 32 40 40 44 44 41 46 46
48 44 43 40 35 35 36 26 22 19 17 14 12 7 6 4 7 13 7 5 13 11 13 10 10 7 9 7 6 10 6 3 2 5 11 2 4 4 6 5 7 5 29 33 33 27 27 32 33 33 34 31 29 29
46 41 36 30 31 33 31 22 22 16 11 8 9 9 9 8 7 6 8 10 13 7 13 15 22 8 10 4 4 4 5 5 3 3 6 2 3 5 4 7 8 29 31 20 22 27 25 25 26 25 25 23 18 13
41 33 29 30 33 30 27 24 21 16 9 9 7 11 6 5 7 5 6 7 9 9 12 10 14 20 9 9 3 5 5 5 6 4 3 4 6 27 28 27 36 35 31 31 23 25 23 25 24 23 22 19 17 14
33 33 32 33 31 29 26 22 19 15 10 6 4 4 7 7 6 11 10 6 6 9 14 12 6 7 8 8 7 4 6 6 6 4 5 5 25 46 48 47 43 35 27 23 23 20 20 21 21 25 26 22 16 14
33 34 37 34 29 26 24 22 19 17 10 8 10 6 9 8 10 9 8 5 12 11 10 11 8 10 8 4 5 6 8 3 4 5 6 7 47 56 53 46 39 30 24 22 20 15 14 15 19 23 25 19 16 18
44 41 36 30 27 25 25 22 21 21 12 10 8 9 11 23 17 12 24 17 18 10 12 9 7 5 5 5 6 6 5 7 5 6 5 34 62 61 54 45 36 31 24 17 13 9 11 14 18 21 24 18 15 17
43 45 40 29 27 25 23 26 24 19 8 9 14 8 16 4 15 18 9 8 12 12 11 5 2 2 7 5 6 5 7 5 7 4 32 58 62 58 50 42 34 23 19 15 9 6 9 12 16 18 19 12 13 20
48 36 31 34 32 27 27 26 17 11 10 10 14 26 34 30 26 34 24 16 14 9 2 2 5 3 6 5 4 1 6 11 32 10 51 61 63 56 50 45 35 27 23 14 5 7 11 13 18 17 15 9 10 16
33 32 37 40 35 30 24 20 10 10 15 23 14 15 22 28 26 32 27 22 15 11 6 6 2 3 6 6 2 5 21 37 3 32 47 53 53 49 48 43 36 29 24 15 7 2 7 9 15 14 9 8 9 13
44 42 37 31 31 19 14 16 11 10 20 23 30 40 41 39 37 36 31 27 21 18 7 6 3 6 7 8 5 7 9 10 4 30 40 43 35 47 45 37 26 23 16 6 4 4 4 7 8 7 6 7 6 11
45 40 36 29 23 11 7 8 15 12 11 9 16 23 18 20 28 29 33 30 28 19 10 8 8 11 11 10 17 24 14 11 23 34 38 47 44 43 35 21 19 19 16 12 10 10 6 8 12 10 9 7 5 4
40 33 28 25 20 19 7 7 13 13 14 13 17 17 16 24 22 21 28 23 27 15 11 23 29 30 26 28 24 22 15 22 37 38 50 48 45 31 22 17 18 14 15 20 20 14 13 12 12 9 7 4 6 3
28 30 24 24 11 11 13 17 13 12 11 16 27 25 14 10 12 21 23 20 20 42 49 46 43 36 34 29 24 21 15 27 36 35 39 35 36 34 26 20 22 21 24 25 19 14 12 10 7 5 3 4 4 2
33 27 9 14 12 12 10 13 10 8 5 7 6 5 6 7 8 13 8 12 16 32 37 42 45 37 29 25 20 14 25 27 29 30 31 29 30 25 20 19 18 22 30 26 15 9 6 3 1 1 2 5 5 7
21 16 10 11 18 8 8 9 11 9 9 6 5 5 5 7 10 4 5 7 13 13 19 26 27 22 22 22 20 32 39 32 26 26 26 28 30 27 23 25 23 25 27 18 14 9 5 6 7 8 9 7 9 7
9 10 8 9 11 8 7 6 8 7 7 7 5 7 6 8 3 5 5 6 13 16 16 17 18 18 23 31 36 40 30 35 34 33 34 37 30 27 27 24 21 20 18 18 17 14 12 9 10 11 11 12 11 7
4 10 13 10 6 8 7 4 2 2 3 6 7 4 5 4 8 6 3 5 8 13 11 19 23 20 13 36 35 28 34 37 39 38 36 35 34 35 31 26 27 25 19 13 10 15 17 14 11 14 14 13 7 6
4 7 12 14 9 6 7 12 18 7 7 6 4 6 5 5 4 0 6 2 6 12 14 13 24 14 9 22 25 23 26 26 29 32 29 28 35 25 18 18 16 10 12 17 17 11 16 15 11 9 11 13 11 7
10 7 8 4 11 15 5 6 5 2 3 9 9 4 3 3 3 1 8 9 11 21 24 23 32 18 15 19 17 15 17 27 28 33 33 41 41 26 19 16 11 6 7 14 15 16 13 13 11 8 7 6 12 16
10 12 6 10 10 10 11 8 6 3 5 8 6 3 1 7 13 28 22 24 20 15 17 20 23 23 17 7 11 9 13 16 25 35 41 47 44 44 34 30 26 18 12 16 18 15 9 9 10 9 9 8 6 13
10 16 7 6 5 6 5 7 4 8 9 3 9 24 23 24 18 16 16 18 27 33 31 27 21 14 13 5 3 11 7 6 5 37 49 45 39 39 38 34 32 31 25 22 24 24 24 21 18 18 16 16 14 15
3 12 10 7 6 9 6 2 3 12 5 12 25 25 14 12 26 26 22 15 19 22 21 23 22 20 16 13 11 11 11 7 20 29 33 36 36 33 32 29 29 32 33 32 32 32 30 30 29 26 23 22 21 18
14 17 10 8 8 7 11 9 5 4 6 5 7 13 12 8 6 8 23 22 17 19 17 14 12 14 14 14 14 14 14 12 12 13 15 22 26 22 20 20 16 16 20 18 24 31 35 39 35 35 34 30 28 26
22 14 15 9 5 4 6 6 4 3 1 2 6 11 7 9 6 6 13 18 13 13 14 12 9 7 3 2 2 4 4 2 3 4 4 8 11 19 31 40 41 30 32 26 29 35 36 36 41 43 36 34 31 31
Wind_Direction_500mb
293 297 301 304 304 307 310 313 315 318 323 328 328 325 325 327 325 320 317 322 299 278 285 274 271 249 263 266 270 305 333 0 311 352 338 331 296 322 299 280 317 336 311 15 310 323 314 342 328 6 298 299 298 143
291 294 297 299 299 302 306 309 313 317 318 321 320 318 319 320 324 317 307 315 308 276 271 295 285 272 264 272 263 265 243 307 267 289 332 296 297 300 301 295 351 356 347 308 324 296 288 313 303 301 293 281 299 118
289 292 294 293 293 295 300 304 307 312 315 316 314 311 313 317 316 310 305 312 319 297 310 289 290 313 301 282 257 233 260 225 245 246 302 280 280 306 309 334 305 335 355 341 315 298 325 342 351 350 35 120 124 122
288 290 289 287 287 289 295 299 302 306 312 312 307 304 308 314 315 307 302 310 286 281 289 284 314 320 312 274 267 263 272 256 283 242 241 255 260 302 303 296 321 312 317 327 314 337 346 6 7 23 79 102 105 106
285 287 286 282 281 282 289 293 295 299 306 307 298 300 309 314 315 317 319 288 284 259 287 295 316 345 335 328 318 299 271 256 249 216 226 255 257 277 250 277 357 320 339 9 17 7 1 17 28 56 67 83 95 105
282 281 278 276 276 278 283 285 288 291 298 299 296 302 308 315 316 328 311 218 303 22 306 300 315 284 340 330 316 297 269 224 225 213 225 252 256 240 8 18 332 56 52 37 32 37 45 37 47 59 68 74 96 101
277 276 273 270 269 274 277 281 283 284 292 291 291 297 300 301 296 279 266 266 251 278 304 292 293 289 333 333 319 278 246 246 225 228 231 252 275 179 20 74 253 3 358 26 49 54 51 46 45 67 74 81 91 98
272 272 269 265 263 265 268 273 273 278 286 284 289 291 289 292 297 293 343 164 230 260 261 279 277 310 344 311 321 316 263 227 230 271 282 293 118 38 269 211 250 316 39 73 73 64 74 73 66 64 74 82 84 87
269 266 264 258 254 253 259 269 266 276 281 284 284 283 292 261 236 93 301 304 268 230 262 229 266 273 327 309 300 304 287 253 190 247 245 180 22 262 244 222 341 85 134 118 109 97 88 82 79 83 82 79 80 81
266 264 257 249 241 241 252 262 264 270 273 268 268 243 238 207 224 296 279 216 209 217 224 250 254 267 305 319 300 328 298 308 330 255 135 144 251 284 187 284 320 123 152 147 122 103 99 89 83 79 76 75 74 77
260 258 248 223 223 237 253 254 256 258 244 213 202 222 224 230 254 228 235 209 191 229 219 238 231 239 269 211 283 312 311 273 240 215 171 190 230 229 205 176 149 154 156 149 124 113 100 87 83 78 70 64 58 53
250 242 210 212 222 234 245 248 243 242 207 201 237 273 262 224 216 226 225 207 202 233 203 214 248 223 262 241 254 248 268 262 243 318 182 241 217 154 154 146 153 159 154 131 112 104 97 86 73 56 44 32 25 21
234 197 203 216 224 231 244 235 234 226 214 207 173 210 188 212 224 219 208 221 214 207 206 221 253 229 218 232 246 275 254 243 248 182 215 227 149 152 146 140 137 140 136 123 111 95 79 68 52 31 27 29 35 34
196 195 208 214 221 234 227 221 214 201 181 193 185 235 193 210 228 206 200 223 298 232 245 265 251 205 195 190 215 256 238 155 251 213 227 168 152 158 154 150 144 144 137 126 113 93 68 49 31 22 21 28 28 28
192 197 206 216 229 221 213 206 199 191 192 214 212 230 225 229 254 263 292 283 305 282 301 289 271 232 231 261 224 289 259 256 242 234 213 157 160 160 157 154 153 151 153 141 118 74 37 23 15 16 18 28 34 28
190 205 209 218 207 198 185 179 182 181 220 227 230 250 246 277 271 270 269 236 255 290 298 242 277 318 247 219 226 255 280 253 287 296 152 158 162 166 161 164 161 159 165 150 130 61 33 12 8 14 18 32 22 12
196 202 202 189 179 176 179 172 169 204 229 229 242 233 254 276 266 272 282 280 298 270 232 44 238 261 309 248 263 223 277 324 316 190 160 169 169 167 170 170 169 170 172 163 139 60 21 4 354 353 359 19 3 1
184 171 162 165 167 157 167 176 204 230 240 241 240 246 237 247 259 271 274 298 278 222 182 213 299 331 254 270 198 193 262 287 288 159 163 169 171 175 175 176 178 181 184 181 166 50 347 354 357 342 329 332 336 350
166 162 161 160 160 161 176 193 220 256 243 254 259 263 264 267 262 260 267 278 265 248 212 164 172 222 240 240 271 267 357 242 124 148 160 166 174 179 179 175 174 190 187 188 215 289 335 353 356 324 300 286 295 341
160 169 174 171 178 189 199 214 206 254 258 247 254 250 231 245 269 272 280 273 241 203 194 194 212 225 237 275 311 308 299 222 169 150 160 171 177 174 170 190 211 199 200 214 235 260 296 320 327 310 304 305 295 335
162 169 179 189 217 221 241 233 227 242 266 249 271 261 260 254 255 257 260 255 217 210 218 223 237 256 275 287 295 295 277 196 186 179 171 172 180 191 195 197 205 218 244 252 238 241 279 304 314 320 295 264 231 244
176 187 190 189 190 199 250 233 236 291 267 259 283 273 235 233 240 240 237 207 221 225 234 243 251 255 274 266 279 286 242 197 196 188 182 187 183 189 198 215 217 237 246 249 255 279 280 284 291 294 290 230 213 255
155 166 157 179 205 221 250 219 227 235 241 252 238 240 231 229 211 193 208 222 234 238 244 248 253 260 252 256 260 254 186 182 187 193 194 196 199 205 220 224 231 244 240 237 235 259 275 282 126 2 144 160 180 186
167 171 198 208 204 244 230 216 219 245 242 245 248 244 244 222 172 182 252 250 234 231 235 236 227 225 228 218 229 196 189 195 193 191 196 203 207 205 218 237 258 258 258 246 215 213 189 122 136 119 104 138 164 176
170 210 207 242 217 231 227 233 209 234 238 221 243 260 203 169 144 208 239 245 228 236 228 211 213 218 223 207 195 188 199 202 201 196 195 202 206 208 225 223 226 224 216 206 193 178 156 138 137 140 123 121 116 114
202 214 183 210 227 198 233 273 280 253 270 254 234 72 191 204 195 230 236 268 225 199 195 188 158 164 139 168 180 195 209 193 196 202 203 203 209 205 198 205 207 210 211 212 186 159 146 148 143 161 156 146 144 118
251 260 231 231 258 278 295 269 243 222 232 247 221 203 208 224 198 283 325 19 209 190 194 205 185 185 165 138 123 138 163 176 192 194 191 198 214 208 200 191 196 200 197 196 194 173 164 156 158 155 166 176 175 168
234 265 212 248 223 236 234 270 259 251 304 322 337 356 322 321 281 79 100 97 142 123 133 134 162 158 125 113 152 158 146 169 180 190 193 198 205 195 178 180 184 202 191 172 175 189 185 182 173 157 151 145 173 178
235 230 232 266 263 239 218 218 255 211 298 1 338 13 44 41 36 100 93 83 94 129 131 118 116 138 149 213 219 181 182 174 182 182 194 200 203 208 210 215 223 224 216 193 183 180 156 170 168 150 127 113 157 197
239 220 227 245 225 231 244 314 264 160 82 340 88 94 71 79 94 108 113 102 93 91 93 91 91 106 109 114 203 219 258 237 191 202 193 192 196 206 216 223 226 221 202 203 201 191 197 200 193 192 199 207 211 208
246 170 206 251 266 255 284 25 80 138 133 126 134 120 113 80 63 96 102 101 122 124 106 95 86 79 77 81 78 80 95 118 183 170 171 167 160 165 175 184 197 208 211 215 225 224 221 223 227 230 229 227 229 234
196 199 202 206 242 282 282 222 181 126 148 164 151 159 147 130 84 79 125 140 144 127 110 98 80 81 64 61 65 86 109 107 109 124 139 168 179 173 173 176 187 201 199 199 232 236 239 242 247 249 245 243 240 240
211 224 223 264 254 138 61 124 103 130 207 259 217 182 147 120 116 124 130 169 166 151 139 108 66 31 342 323 116 168 201 254 302 288 273 253 258 248 242 251 257 259 256 228 210 214 225 239 245 249 248 248 249 248
Wind_Speed_850mb
41 40 40 41 42 42 41 38 37 37 35 32 31 28 24 23 22 21 27 14 16 20 51 48 32 20 26 24 6 23 23 5 6 8 5 5 5 6 7 7 14 6 9 4 5 5 8 41 36 12 16 44 34 3
43 42 43 43 42 41 39 38 37 35 31 31 29 25 24 24 21 20 31 27 26 31 53 73 67 57 58 43 42 12 14 18 10 4 1 6 4 5 7 6 8 3 9 6 4 3 19 43 33 41 46 42 16 48
47 47 46 45 41 41 38 36 35 33 31 30 29 25 25 27 22 19 33 31 31 27 51 15 9 12 37 31 26 20 13 10 11 11 5 4 7 4 5 6 8 10 13 6 8 7 19 47 50 53 19 36 44 56
50 50 48 45 42 41 38 36 33 30 29 28 26 24 27 27 27 24 31 19 19 17 12 20 37 32 17 13 25 43 54 39 27 6 8 4 5 2 5 7 6 7 18 14 8 15 15 46 56 50 41 49 55 56
52 50 49 48 43 41 38 35 32 29 28 28 25 24 28 29 29 28 12 7 14 14 10 34 51 6 14 26 33 36 41 46 28 6 5 3 5 5 6 3 6 14 9 7 9 35 12 33 52 59 58 55 60 70
54 53 49 48 46 43 38 36 32 29 28 27 25 26 28 27 26 25 3 7 5 5 12 9 22 13 18 23 25 22 16 28 16 7 5 6 8 5 4 5 17 27 36 40 18 44 35 47 65 68 71 65 70 74
54 53 50 47 47 44 39 36 29 26 25 26 24 26 26 20 20 14 6 6 14 21 9 13 15 15 25 27 13 8 10 11 7 4 5 6 2 7 1 3 11 12 9 21 26 22 44 59 48 67 73 75 77 75
50 49 48 47 48 42 38 34 26 25 24 23 24 24 20 17 24 11 3 0 17 25 11 6 8 17 14 12 11 7 7 4 6 4 6 4 5 1 2 9 13 18 10 19 18 27 29 40 49 55 65 67 68 62
49 47 45 45 44 36 36 32 23 22 20 21 21 16 20 9 7 1 11 17 12 13 7 8 5 7 16 10 10 8 6 2 5 3 5 3 2 3 10 8 6 9 10 25 28 31 32 40 40 44 44 41 46 46
48 44 43 40 35 35 36 26 22 19 17 14 12 7 6 4 7 13 7 5 13 11 13 10 10 7 9 7 6 10 6 3 2 5 11 2 4 4 6 5 7 5 29 33 33 27 27 32 33 33 34 31 29 29
46 41 36 30 31 33 31 22 22 16 11 8 9 9 9 8 7 6 8 10 13 7 13 15 22 8 10 4 4 4 5 5 3 3 6 2 3 5 4 7 8 29 31 20 22 27 25 25 26 25 25 23 18 13
41 33 29 30 33 30 27 24 21 16 9 9 7 11 6 5 7 5 6 7 9 9 12 10 14 20 9 9 3 5 5 5 6 4 3 4 6 27 28 27 36 35 31 31 23 25 23 25 24 23 22 19 17 14
33 33 32 33 31 29 26 22 19 15 10 6 4 4 7 7 6 11 10 6 6 9 14 12 6 7 8 8 7 4 6 6 6 4 5 5 25 46 48 47 43 35 27 23 23 20 20 21 21 25 26 22 16 14
33 34 37 34 29 26 24 22 19 17 10 8 10 6 9 8 10 9 8 5 12 11 10 11 8 10 8 4 5 6 8 3 4 5 6 7 47 56 53 46 39 30 24 22 20 15 14 15 19 23 25 19 16 18
44 41 36 30 27 25 25 22 21 21 12 10 8 9 11 23 17 12 24 17 18 10 12 9 7 5 5 5 6 6 5 7 5 6 5 34 62 61 54 45 36 31 24 17 13 9 11 14 18 21 24 18 15 17
43 45 40 29 27 25 23 26 24 19 8 9 14 8 16 4 15 18 9 8 12 12 11 5 2 2 7 5 6 5 7 5 7 4 32 58 62 58 50 42 34 23 19 15 9 6 9 12 16 18 19 12 13 20
48 36 31 34 32 27 27 26 17 11 10 10 14 26 34 30 26 34 24 16 14 9 2 2 5 3 6 5 4 1 6 11 32 10 51 61 63 56 50 45 35 27 23 14 5 7 11 13 18 17 15 9 10 16
33 32 37 40 35 30 24 20 10 10 15 23 14 15 22 28 26 32 27 22 15 11 6 6 2 3 6 6 2 5 21 37 3 32 47 53 53 49 48 43 36 29 24 15 7 2 7 9 15 14 9 8 9 13
44 42 37 31 31 19 14 16 11 10 20 23 30 40 41 39 37 36 31 27 21 18 7 6 3 6 7 8 5 7 9 10 4 30 40 43 35 47 45 37 26 23 16 6 4 4 4 7 8 7 6 7 6 11
45 40 36 29 23 11 7 8 15 12 11 9 16 23 18 20 28 29 33 30 28 19 10 8 8 11 11 10 17 24 14 11 23 34 38 47 44 43 35 21 19 19 16 12 10 10 6 8 12 10 9 7 5 4
40 33 28 25 20 19 7 7 13 13 14 13 17 17 16 24 22 21 28 23 27 15 11 23 29 30 26 28 24 22 15 22 37 38 50 48 45 31 22 17 18 14 15 20 20 14 13 12 12 9 7 4 6 3
28 30 24 24 11 11 13 17 13 12 11 16 27 25 14 10 12 21 23 20 20 42 49 46 43 36 34 29 24 21 15 27 36 35 39 35 36 34 26 20 22 21 24 25 19 14 12 10 7 5 3 4 4 2
33 27 9 14 12 12 10 13 10 8 5 7 6 5 6 7 8 13 8 12 16 32 37 42 45 37 29 25 20 14 25 27 29 30 31 29 30 25 20 19 18 22 30 26 15 9 6 3 1 1 2 5 5 7
21 16 10 11 18 8 8 9 11 9 9 6 5 5 5 7 10 4 5 7 13 13 19 26 27 22 22 22 20 32 39 32 26 26 26 28 30 27 23 25 23 25 27 18 14 9 5 6 7 8 9 7 9 7
9 10 8 9 11 8 7 6 8 7 7 7 5 7 6 8 3 5 5 6 13 16 16 17 18 18 23 31 36 40 30 35 34 33 34 37 30 27 27 24 21 20 18 18 17 14 12 9 10 11 11 12 11 7
4 10 13 10 6 8 7 4 2 2 3 6 7 4 5 4 8 6 3 5 8 13 11 19 23 20 13 36 35 28 34 37 39 38 36 35 34 35 31 26 27 25 19 13 10 15 17 14 11 14 14 13 7 6
4 7 12 14 9 6 7 12 18 7 7 6 4 6 5 5 4 0 6 2 6 12 14 13 24 14 9 22 25 23 26 26 29 32 29 28 35 25 18 18 16 10 12 17 17 11 16 15 11 9 11 13 11 7
10 7 8 4 11 15 5 6 5 2 3 9 9 4 3 3 3 1 8 9 11 21 24 23 32 18 15 19 17 15 17 27 28 33 33 41 41 26 19 16 11 6 7 14 15 16 13 13 11 8 7 6 12 16
10 12 6 10 10 10 11 8 6 3 5 8 6 3 1 7 13 28 22 24 20 15 17 20 23 23 17 7 11 9 13 16 25 35 41 47 44 44 34 30 26 18 12 16 18 15 9 9 10 9 9 8 6 13
10 16 7 6 5 6 5 7 4 8 9 3 9 24 23 24 18 16 16 18 27 33 31 27 21 14 13 5 3 11 7 6 5 37 49 45 39 39 38 34 32 31 25 22 24 24 24 21 18 18 16 16 14 15
3 12 10 7 6 9 6 2 3 12 5 12 25 25 14 12 26 26 22 15 19 22 21 23 22 20 16 13 11 11 11 7 20 29 33 36 36 33 32 29 29 32 33 32 32 32 30 30 29 26 23 22 21 18
14 17 10 8 8 7 11 9 5 4 6 5 7 13 12 8 6 8 23 22 17 19 17 14 12 14 14 14 14 14 14 12 12 13 15 22 26 22 20 20 16 16 20 18 24 31 35 39 35 35 34 30 28 26
22 14 15 9 5 4 6 6 4 3 1 2 6 11 7 9 6 6 13 18 13 13 14 12 9 7 3 2 2 4 4 2 3 4 4 8 11 19 31 40 41 30 32 26 29 35 36 36 41 43 36 34 31 31
Wind_Direction_850mb
293 297 301 304 304 307 310 313 315 318 323 328 328 325 325 327 325 320 317 322 299 278 285 274 271 249 263 266 270 305 333 0 311 352 338 331 296 322 299 280 317 336 311 15 310 323 314 342 328 6 298 299 298 143
291 294 297 299 299 302 306 309 313 317 318 321 320 318 319 320 324 317 307 315 308 276 271 295 285 272 264 272 263 265 243 307 267 289 332 296 297 300 301 295 351 356 347 308 324 296 288 313 303 301 293 281 299 118
289 292 294 293 293 295 300 304 307 312 315 316 314 311 313 317 316 310 305 312 319 297 310 289 290 313 301 282 257 233 260 225 245 246 302 280 280 306 309 334 305 335 355 341 315 298 325 342 351 350 35 120 124 122
288 290 289 287 287 289 295 299 302 306 312 312 307 304 308 314 315 307 302 310 286 281 289 284 314 320 312 274 267 263 272 256 283 242 241 255 260 302 303 296 321 312 317 327 314 337 346 6 7 23 79 102 105 106
285 287 286 282 281 282 289 293 295 299 306 307 298 300 309 314 315 317 319 288 284 259 287 295 316 345 335 328 318 299 271 256 249 216 226 255 257 277 250 277 357 320 339 9 17 7 1 17 28 56 67 83 95 105
282 281 278 276 276 278 283 285 288 291 298 299 296 302 308 315 316 328 311 218 303 22 306 300 315 284 340 330 316 297 269 224 225 213 225 252 256 240 8 18 332 56 52 37 32 37 45 37 47 59 68 74 96 101
277 276 273 270 269 274 277 281 283 284 292 291 291 297 300 301 296 279 266 266 251 278 304 292 293 289 333 333 319 278 246 246 225 228 231 252 275 179 20 74 253 3 358 26 49 54 51 46 45 67 74 81 91 98
272 272 269 265 263 265 268 273 273 278 286 284 289 291 289 292 297 293 343 164 230 260 261 279 277 310 344 311 321 316 263 227 230 271 282 293 118 38 269 211 250 316 39 73 73 64 74 73 66 64 74 82 84 87
269 266 264 258 254 253 259 269 266 276 281 284 284 283 292 261 236 93 301 304 268 230 262 229 266 273 327 309 300 304 287 253 190 247 245 180 22 262 244 222 341 85 134 118 109 97 88 82 79 83 82 79 80 81
266 264 257 249 241 241 252 262 264 270 273 268 268 243 238 207 224 296 279 216 209 217 224 250 254 267 305 319 300 328 298 308 330 255 135 144 251 284 187 284 320 123 152 147 122 103 99 89 83 79 76 75 74 77
260 258 248 223 223 237 253 254 256 258 244 213 202 222 224 230 254 228 235 209 191 229 219 238 231 239 269 211 283 312 311 273 240 215 171 190 230 229 205 176 149 154 156 149 124 113 100 87 83 78 70 64 58 53
250 242 210 212 222 234 245 248 243 242 207 201 237 273 262 224 216 226 225 207 202 233 203 214 248 223 262 241 254 248 268 262 243 318 182 241 217 154 154 146 153 159 154 131 112 104 97 86 73 56 44 32 25 21
234 197 203 216 224 231 244 235 234 226 214 207 173 210 188 212 224 219 208 221 214 207 206 221 253 229 218 232 246 275 254 243 248 182 215 227 149 152 146 140 137 140 136 123 111 95 79 68 52 31 27 29 35 34
196 195 208 214 221 234 227 221 214 201 181 193 185 235 193 210 228 206 200 223 298 232 245 265 251 205 195 190 215 256 238 155 251 213 227 168 152 158 154 150 144 144 137 126 113 93 68 49 31 22 21 28 28 28
192 197 206 216 229 221 213 206 199 191 192 214 212 230 225 229 254 263 292 283 305 282 301 289 271 232 231 261 224 289 259 256 242 234 213 157 160 160 157 154 153 151 153 141 118 74 37 23 15 16 18 28 34 28
190 205 209 218 207 198 185 179 182 181 220 227 230 250 246 277 271 270 269 236 255 290 298 242 277 318 247 219 226 255 280 253 287 296 152 158 162 166 161 164 161 159 165 150 130 61 33 12 8 14 18 32 22 12
196 202 202 189 179 176 179 172 169 204 229 229 242 233 254 276 266 272 282 280 298 270 232 44 238 261 309 248 263 223 277 324 316 190 160 169 169 167 170 170 169 170 172 163 139 60 21 4 354 353 359 19 3 1
184 171 162 165 167 157 167 176 204 230 240 241 240 246 237 247 259 271 274 298 278 222 182 213 299 331 254 270 198 193 262 287 288 159 163 169 171 175 175 176 178 181 184 181 166 50 347 354 357 342 329 332 336 350
166 162 161 160 160 161 176 193 220 256 243 254 259 263 264 267 262 260 267 278 265 248 212 164 172 222 240 240 271 267 357 242 124 148 160 166 174 179 179 175 174 190 187 188 215 289 335 353 356 324 300 286 295 341
160 169 174 171 178 189 199 214 206 254 258 247 254 250 231 245 269 272 280 273 241 203 194 194 212 225 237 275 311 308 299 222 169 150 160 171 177 174 170 190 211 199 200 214 235 260 296 320 327 310 304 305 295 335
162 169 179 189 217 221 241 233 227 242 266 249 271 261 260 254 255 257 260 255 217 210 218 223 237 256 275 287 295 295 277 196 186 179 171 172 180 191 195 197 205 218 244 252 238 241 279 304 314 320 295 264 231 244
176 187 190 189 190 199 250 233 236 291 267 259 283 273 235 233 240 240 237 207 221 225 234 243 251 255 274 266 279 286 242 197 196 188 182 187 183 189 198 215 217 237 246 249 255 279 280 284 291 294 290 230 213 255
155 166 157 179 205 221 250 219 227 235 241 252 238 240 231 229 211 193 208 222 234 238 244 248 253 260 252 256 260 254 186 182 187 193 194 196 199 205 220 224 231 244 240 237 235 259 275 282 126 2 144 160 180 186
167 171 198 208 204 244 230 216 219 245 242 245 248 244 244 222 172 182 252 250 234 231 235 236 227 225 228 218 229 196 189 195 193 191 196 203 207 205 218 237 258 258 258 246 215 213 189 122 136 119 104 138 164 176
170 210 207 242 217 231 227 233 209 234 238 221 243 260 203 169 144 208 239 245 228 236 228 211 213 218 223 207 195 188 199 202 201 196 195 202 206 208 225 223 226 224 216 206 193 178 156 138 137 140 123 121 116 114
202 214 183 210 227 198 233 273 280 253 270 254 234 72 191 204 195 230 236 268 225 199 195 188 158 164 139 168 180 195 209 193 196 202 203 203 209 205 198 205 207 210 211 212 186 159 146 148 143 161 156 146 144 118
251 260 231 231 258 278 295 269 243 222 232 247 221 203 208 224 198 283 325 19 209 190 194 205 185 185 165 138 123 138 163 176 192 194 191 198 214 208 200 191 196 200 197 196 194 173 164 156 158 155 166 176 175 168
234 265 212 248 223 236 234 270 259 251 304 322 337 356 322 321 281 79 100 97 142 123 133 134 162 158 125 113 152 158 146 169 180 190 193 198 205 195 178 180 184 202 191 172 175 189 185 182 173 157 151 145 173 178
235 230 232 266 263 239 218 218 255 211 298 1 338 13 44 41 36 100 93 83 94 129 131 118 116 138 149 213 219 181 182 174 182 182 194 200 203 208 210 215 223 224 216 193 183 180 156 170 168 150 127 113 157 197
239 220 227 245 225 231 244 314 264 160 82 340 88 94 71 79 94 108 113 102 93 91 93 91 91 106 109 114 203 219 258 237 191 202 193 192 196 206 216 223 226 221 202 203 201 191 197 200 193 192 199 207 211 208
246 170 206 251 266 255 284 25 80 138 133 126 134 120 113 80 63 96 102 101 122 124 106 95 86 79 77 81 78 80 95 118 183 170 171 167 160 165 175 184 197 208 211 215 225 224 221 223 227 230 229 227 229 234
196 199 202 206 242 282 282 222 181 126 148 164 151 159 147 130 84 79 125 140 144 127 110 98 80 81 64 61 65 86 109 107 109 124 139 168 179 173 173 176 187 201 199 199 232 236 239 242 247 249 245 243 240 240
211 224 223 264 254 138 61 124 103 130 207 259 217 182 147 120 116 124 130 169 166 151 139 108 66 31 342 323 116 168 201 254 302 288 273 253 258 248 242 251 257 259 256 228 210 214 225 239 245 249 248 248 249 248